Home   Weather   Mandalay   Past weeks

Flag for Myanmar Past Weather in Mandalay, Myanmar — Yesterday and Last 2 Weeks

Now
66 °F

Passing clouds.


Feels Like: 66 °F
Forecast: 64 / 92 °F
Wind: No wind

Location: Chiang Mai Airport

Current Time: Feb 25, 2017 at 4:29:21 am

Latest Report: Feb 25, 2017 at 3:30 am


Visibility: N/A

Pressure: 29.92 "Hg

Humidity: 64%

Dew Point: 54 °F

Location of MandalayLocation

Past Weather in Mandalay — Graph

°F

Mandalay Temperature Yesterday

Maximum temperature yesterday: 97 °F (at 4:00 pm)
Minimum temperature yesterday: 57 °F (at 5:30 am)
Average temperature yesterday: 78 °F

High & Low Weather Summary for the Past Weeks

 TemperatureHumidityPressure
High97 °F (Feb 23, 4:00 pm)83% (Feb 10, 4:00 am)30.24 "Hg (Feb 10, 4:00 am)
Low57 °F (Feb 24, 5:30 am)13% (Feb 23, 4:00 pm)29.74 "Hg (Feb 20, 3:30 pm)
Average76 °F50%30.02 "Hg
* Reported Feb 10 2:30 am — Feb 25 3:00 am, Mandalay, Weather by CustomWeather, © 2017

Note: Actual official high and low records may vary slightly from our data, if they occured in-between our weather recording intervals... More about our weather records

Advertising

Mandalay Weather History for the Previous 24 Hours

Scroll right to see more
 ConditionsComfort  
Time TempWeatherWind HumidityBarometerVisibility
3:00 am
Sat, Feb 25
66 °FPassing clouds.No wind64%29.95 "HgN/A
2:30 am68 °FPassing clouds.No wind60%29.95 "HgN/A
2:00 am68 °FPassing clouds.No wind60%29.95 "HgN/A
1:30 am68 °FPassing clouds.No wind60%29.95 "HgN/A
1:00 am70 °FPassing clouds.No wind57%29.95 "HgN/A
12:30 am72 °FPassing clouds.No wind50%29.95 "HgN/A
12:00 am72 °FPassing clouds.3 mph53%29.95 "HgN/A
11:30 pm
Fri, Feb 24
73 °FPassing clouds.No wind50%29.95 "HgN/A
11:00 pm73 °FPassing clouds.6 mph50%29.95 "HgN/A
10:30 pm75 °FPassing clouds.No wind44%29.95 "HgN/A
10:00 pm75 °FPassing clouds.No wind47%29.95 "HgN/A
9:30 pm79 °FPassing clouds.3 mph39%29.95 "HgN/A
9:00 pm79 °FPassing clouds.2 mph37%29.92 "HgN/A
8:30 pm81 °FPassing clouds.6 mph32%29.92 "HgN/A
8:00 pm79 °FPassing clouds.3 mph32%29.89 "HgN/A
7:30 pm81 °FPassing clouds.No wind32%29.89 "HgN/A
7:00 pm82 °FPassing clouds.1 mph30%29.86 "HgN/A
6:30 pm86 °FPassing clouds.No wind29%29.86 "HgN/A
6:00 pm91 °FPassing clouds.No wind20%29.86 "HgN/A
5:30 pm95 °FPassing clouds.2 mph15%29.83 "HgN/A
5:00 pm97 °FPassing clouds.5 mph14%29.83 "HgN/A
4:30 pm97 °FPassing clouds.7 mph14%29.83 "HgN/A
4:00 pm97 °FPassing clouds.5 mph16%29.83 "HgN/A
3:30 pm95 °FPassing clouds.6 mph15%29.86 "HgN/A
3:00 pm95 °FPassing clouds.7 mph15%29.86 "Hg5 mi
2:30 pm95 °FPassing clouds.7 mph15%29.89 "Hg5 mi
2:00 pm93 °FPassing clouds.5 mph20%29.89 "Hg5 mi
1:30 pm91 °FPassing clouds.6 mph20%29.92 "Hg5 mi
1:00 pm91 °FPassing clouds.7 mph21%29.95 "Hg5 mi
12:30 pm90 °FPassing clouds.3 mph24%29.98 "Hg5 mi
12:00 pm88 °FPassing clouds.5 mph27%29.98 "Hg5 mi
11:30 am86 °FPassing clouds.6 mph31%30.01 "Hg5 mi
11:00 am84 °FPassing clouds.3 mph33%30.04 "Hg5 mi
10:30 am82 °FPassing clouds.3 mph35%30.04 "Hg5 mi
10:00 am81 °FPassing clouds.2 mph39%30.07 "Hg5 mi
9:30 am79 °FPassing clouds.No wind39%30.07 "Hg5 mi
9:00 am75 °FPassing clouds.2 mph47%30.07 "Hg5 mi
8:30 am73 °FPassing clouds.No wind50%30.04 "Hg5 mi
8:00 am70 °FPassing clouds.No wind57%30.04 "Hg5 mi
7:30 am68 °FPassing clouds.No wind64%30.04 "Hg5 mi
7:00 am64 °FPassing clouds.No wind68%30.01 "Hg5 mi
6:30 am63 °FPassing clouds.No wind73%30.01 "Hg5 mi
6:00 am63 °FPassing clouds.No wind73%29.98 "Hg5 mi
5:30 am57 °FPassing clouds.No wind82%29.98 "Hg5 mi
5:00 am63 °FPassing clouds.No wind68%29.98 "Hg6 mi
4:30 am64 °FPassing clouds.No wind68%29.95 "Hg6 mi
4:00 am64 °FPassing clouds.2 mph64%29.95 "Hg6 mi
Weather by CustomWeather, © 2017

See weather overviewHow to use our weather pages